Left ArrowRight Arrow

33.76696, -118.18923

Hourly Observations for June 17, 2024

Temp ( °F °C ) Dew Point ( °F °C ) Humidity (%) Winds ( mph kmh ) Pressure ( in mb ) Visibility ( mi km ) Precip ( " mm )
12:36 am 00:36 Cloudy 66 18.9 57 13.9 73 73 SE 5 7 29.73 1007 9 14 0.00 0.00
12:53 am 00:53 Cloudy 66 18.9 57 13.9 73 73 ESE 7 11 29.73 1007 9 14 0.00 0.00
1:53 am 01:53 Cloudy 66 18.9 56 13.3 70 70 ESE 6 9 29.72 1007 9 14 0.00 0.00
2:53 am 02:53 Cloudy 65 18.3 56 13.3 73 73 S 5 7 29.72 1006 9 14 0.00 0.00
3:53 am 03:53 Cloudy 65 18.3 56 13.3 73 73 Calm 29.71 1006 9 14 0.00 0.00
4:53 am 04:53 Cloudy 66 18.9 57 13.9 73 73 SSE 6 9 29.72 1006 9 14 0.00 0.00
5:53 am 05:53 Cloudy 66 18.9 57 13.9 73 73 SSE 7 11 29.73 1007 8 13 0.00 0.00
6:53 am 06:53 Cloudy 66 18.9 56 13.3 70 70 SE 7 11 29.74 1007 8 13 0.00 0.00
7:53 am 07:53 Cloudy 67 19.4 56 13.3 68 68 S 6 9 29.75 1008 8 13 0.00 0.00
8:53 am 08:53 Mostly Cloudy 68 20 56 13.3 65 65 SSW 7 11 29.76 1008 8 13 0.00 0.00
9:53 am 09:53 Cloudy 70 21.1 56 13.3 61 61 S 6 9 29.76 1008 9 14 0.00 0.00
10:29 am 10:29 Partly Cloudy 70 21.1 56 13.3 61 61 S 7 11 29.76 1008 9 14 0.00 0.00
10:53 am 10:53 Mostly Cloudy 70 21.1 57 13.9 63 63 S 8 13 29.76 1008 9 14 0.00 0.00
11:27 am 11:27 Mostly Sunny 71 21.7 56 13.3 59 59 SSE 9 15 29.76 1008 9 14 0.00 0.00
11:48 am 11:48 Mostly Sunny 72 22 55 13 57 57 SSW 8 13 29.76 1008 9 14 0.00 0.00
11:53 am 11:53 Mostly Sunny 72 22.2 57 13.9 59 59 SSW 9 15 29.75 1008 9 14 0.00 0.00
12:53 pm 12:53 Mostly Sunny 72 22.2 57 13.9 59 59 S 10 17 29.76 1008 9 14 0.00 0.00
1:02 pm 13:02 Cloudy 71 21.7 56 13.3 59 59 SW 10 17 29.76 1008 9 14 0.00 0.00
1:53 pm 13:53 Cloudy 72 22.2 56 13.3 57 57 SSW 10 17 29.75 1008 9 14 0.00 0.00
2:53 pm 14:53 Mostly Cloudy 73 22.8 57 13.9 57 57 SSW 10 17 29.74 1007 9 14 0.00 0.00
3:00 pm 15:00 Mostly Sunny 74 23.3 57 13.9 56 56 SW 12 19 29.74 1007 9 14 0.00 0.00
3:53 pm 15:53 Mostly Sunny 74 23.3 57 13.9 56 56 S 9 15 29.72 1007 10 16 0.00 0.00
4:53 pm 16:53 Mostly Sunny 71 21.7 57 13.9 61 61 SSW 9 15 29.72 1006 9 14 0.00 0.00
5:53 pm 17:53 Sunny 71 21.7 58 14.4 63 63 S 8 13 29.71 1006 9 14 0.00 0.00
6:53 pm 18:53 Sunny 70 21.1 58 14.4 66 66 VRB 7 11 29.71 1006 8 13 0.00 0.00
7:53 pm 19:53 Sunny 68 20 59 15 73 73 S 7 11 29.71 1006 8 13 0.00 0.00
8:32 pm 20:32 Mostly Cloudy 67 19.4 59 15 76 76 S 3 6 29.73 1007 9 14 0.00 0.00
8:53 pm 20:53 Mostly Cloudy 67 19.4 59 15 76 76 SSE 7 11 29.72 1006 9 14 0.00 0.00
9:53 pm 21:53 Mostly Cloudy 67 19.4 59 15 76 76 SSE 5 7 29.73 1007 9 14 0.00 0.00
10:53 pm 22:53 Mostly Cloudy 66 18.9 58 14.4 75 75 SE 6 9 29.73 1007 9 14 0.00 0.00
11:53 pm 23:53 Mostly Cloudy 65 18.3 58 14.4 78 78 SSE 5 7 29.73 1007 9 14 0.00 0.00

Powered by Vaisala Xweather